Location: Strawberry
(45.6646°N, 111.9596°W)
Time: 22:06:09
(UTC+00:00)

Courier 1B Rocket - Pass Details

Date: 12 October 2022
Orbit: 920 x 1202 km, 28.3° (Epoch: 03 December)

Event Time Altitude Azimuth Distance (km) Brightness Sun altitude
Rises 22:54:23 0° 227° (SW) 4,059 9.8 17.5°
Reaches altitude 10° 22:58:20 10° 210° (SSW) 3,064 8.8 17.0°
Maximum altitude 23:03:00 18° 171° (S) 2,485 7.5 16.2°
Drops below altitude 10° 23:07:33 10° 132° (SE) 2,952 7.4 15.6°
Sets 23:11:14 0° 114° (ESE) 3,853 7.8 15.0°
